Location: Fort Wayne
(41.1310°N, 85.1290°W)
Time: 06:27:38
(UTC-05:00)

OPAL - Visible Passes

Search period start: 18 December 2014 00:00
Search period end: 28 December 2014 00:00
Orbit: 744 x 796 km, 100.2° (Epoch: 17 December)

Date Brightness Start Highest point End Pass type
(mag) Time Alt. Az. Time Alt. Az. Time Alt. Az.
18 Dec 9.3 04:44:12 10° ESE 04:48:16 26° ENE 04:48:43 26° NE visible
18 Dec 8.0 06:22:24 10° SSW 06:26:58 37° W 06:29:01 26° NW visible
18 Dec 7.6 18:31:35 10° NNE 18:36:41 56° ESE 18:41:46 10° S visible
18 Dec 9.8 20:11:29 10° NNW 20:15:07 20° WNW 20:18:47 10° WSW visible
19 Dec 10.3 04:11:13 10° E 04:12:58 13° ENE 04:12:58 13° ENE visible
19 Dec 7.3 05:46:38 10° SSE 05:51:35 83° WSW 05:53:16 43° NNW visible
19 Dec 8.6 17:56:56 10° NE 18:01:14 26° E 18:05:31 10° SSE visible
19 Dec 8.8 19:35:44 12° N 19:40:11 39° WNW 19:44:59 10° SW visible
20 Dec 8.4 05:11:42 10° SE 05:16:24 45° ENE 05:17:31 39° NNE visible
20 Dec 8.7 06:51:48 10° SW 06:55:30 21° W 06:57:49 16° WNW visible
20 Dec 7.6 18:59:58 11° NNE 19:05:03 83° WNW 19:10:15 10° SSW visible
20 Dec 10.3 20:41:19 10° NW 20:43:07 12° NW 20:44:54 10° WNW visible
21 Dec 9.6 04:37:40 10° ESE 04:41:25 22° ENE 04:41:46 22° NE visible
21 Dec 7.7 06:15:14 10° S 06:19:58 46° WSW 06:22:05 29° NW visible
21 Dec 7.9 18:24:45 10° NNE 18:29:44 46° ESE 18:34:43 10° S visible
21 Dec 9.6 20:04:30 11° NNW 20:08:18 24° WNW 20:12:22 10° WSW visible
22 Dec 10.4 04:05:32 10° ENE 04:06:02 11° ENE 04:06:02 11° ENE visible
22 Dec 7.4 05:39:41 10° SSE 05:44:39 81° ENE 05:46:20 43° N visible
22 Dec 9.3 07:22:42 10° WSW 07:24:08 11° W 07:25:35 10° WNW visible
22 Dec 8.8 17:50:19 10° NE 17:54:14 21° E 17:58:09 10° SE visible
22 Dec 8.4 19:28:44 12° N 19:33:19 48° WNW 19:38:17 10° SW visible
23 Dec 8.7 05:04:58 10° SE 05:09:31 37° ENE 05:10:36 33° NE visible
23 Dec 8.5 06:44:22 10° SSW 06:48:28 26° W 06:50:54 18° WNW visible
23 Dec 7.5 18:52:58 10° NNE 18:58:08 81° ESE 19:03:21 10° SSW visible
23 Dec 10.2 20:33:39 10° NNW 20:36:20 14° WNW 20:39:00 10° W visible
24 Dec 9.8 04:31:13 10° ESE 04:34:35 19° ENE 04:34:52 18° NE visible
24 Dec 7.5 06:08:07 10° S 06:13:00 57° WSW 06:15:10 32° NW visible
24 Dec 8.1 18:17:57 10° NNE 18:22:46 37° E 18:27:35 10° SSE visible
24 Dec 9.3 19:57:29 12° N 20:01:28 28° WNW 20:05:51 10° WSW visible
25 Dec 7.7 05:32:48 10° SSE 05:37:43 66° ENE 05:39:26 40° N visible
25 Dec 9.1 07:14:27 10° SW 07:17:04 14° W 07:19:43 10° WNW visible
25 Dec 9.0 17:43:48 10° NE 17:47:13 18° E 17:50:38 10° SE visible
25 Dec 8.1 19:21:42 12° N 19:26:26 58° WNW 19:31:32 10° SSW visible
26 Dec 9.1 04:58:18 10° SE 05:02:39 31° ENE 05:03:43 28° NE visible
26 Dec 8.2 06:37:03 10° SSW 06:41:27 31° W 06:44:01 20° NW visible
26 Dec 7.5 18:46:00 10° NNE 18:51:12 67° ESE 18:56:23 10° S visible
26 Dec 10.0 20:26:15 10° NNW 20:29:32 17° WNW 20:32:49 10° W visible
27 Dec 10.0 04:24:53 10° E 04:27:46 16° ENE 04:28:00 16° NE visible
27 Dec 7.3 06:01:04 10° S 06:06:02 70° WSW 06:08:18 33° NNW visible
27 Dec 8.4 18:11:12 10° NE 18:15:47 31° E 18:20:22 10° SSE visible
27 Dec 9.0 19:50:25 12° N 19:54:37 34° WNW 19:59:16 10° SW visible
